NOAA 16 DEB, 42393

Orbit data source: Space-Track

NOAA 16 DEB, 42393 is space debris in SSO originally from a launch on Thu, 21 Sep 2000 UTC launched from the Air Force Western Test Range (AFWTR). Debris objects in space refer to the collection of defunct objects orbiting the Earth. Examples of debris include non-operational satellites, rocket bodies, and fragments generated from explosions, collisions, or faulty payload assembly.

Loading next visibility...
Identifier
42393, 2000-055SM
Orbit
SSO
Country
Flag of USUS
Related business
Manufacturer
Unknown
Mission
Spacecraft
Bus & Motor
Unknown
Mass
Unknown
Launch date (UTC)
2000-09-21 (26 years ago)
Launch vehicle
Unknown
Launch site
Air Force Western Test Range (AFWTR)
Object type
Payload
Rocket body
Debris
Shape & HBR
Unknown shape, 0.1 m
Radar Cross Section
Medium (>0.1 m² and <1 m²)

Expand to show TLE details & history
Last TLE update: 4 days ago

TLE from 4 days ago
0 NOAA 16 DEB
1 42393U 00055SM  26169.05762866  .00005206  00000-0  20690-2 0  9997
2 42393  98.9202 262.2514 0037194 251.4550 108.2588 14.28765955529382
Epoch: 2026-06-18T01:22Z
TLE epoch observation values (Epoch: 2026-06-18T01:22:59.116Z)
Latitude
-0.00003°
Longitude
-24.80133°
Altitude
807.229 km
Speed
7.445 km/s
True Right ascension
17h 29m 00s
True Declination
0° 00' 00"
Sunlit
Object was in full shadow at epoch
Visualization orbit readout
Latitude
Unknown
Longitude
Unknown
Altitude
Unknown
Speed
Unknown
Apparent Right ascension
Unknown
Apparent Declination
Unknown
Sunlit
N/A
Visualization observer readout
Local Sidereal Time
21:35:19
Azimuth
Unknown
Elevation
Unknown
Doppler factor
Unknown
Orbital elements
Apogee altitude
819.688 km
Perigee altitude
766.343 km
Semi-major axis
7,171.153 km
Eccentricity
0.00372
Inclination
98.9202°
RAAN
262.2514°
Arg. of periapsis
251.455°
True anomaly
108.66296°
Mean anomaly
108.2588°
Eccentric anomaly
108.46094°
Mean motion
3.57404 °/min
Orbital period
100.73 mins
BSTAR
0.002069
Loading maneuver chart data...
Computing Atmospheric mass density...
Loading historical data...
Loading historical data...
Loading historical data...
Loading historical data...
Loading historical data...
Loading historical data...
Loading historical data...

Documentation

Showing up to 5 results
|